Location: Unspecified
(54.1780°N, 0.0000°E)
Time: 09:23:05
(UTC+00:00)

Tiros 1 - Pass Details

Date: 23 June 2019
Orbit: 630 x 664 km, 48.4° (Epoch: 19 July)

Event Time Altitude Azimuth Distance (km) Brightness Sun altitude
Rises 04:54:43 0° 272° (W) 2,928 10.0 9.6°
Reaches altitude 10° 04:58:01 10° 248° (WSW) 2,011 9.1 10.0°
Maximum altitude 05:00:26 14° 216° (SW) 1,740 8.9 10.3°
Drops below altitude 10° 05:02:52 10° 184° (S) 2,003 9.4 10.7°
Sets 05:06:09 0° 160° (SSE) 2,906 10.5 11.1°
